User: anonymous   Login
Location: Hylvaty SDH
(49.9612°N, 16.4057°E)
Time: 04:20:07
(UTC+01:00)
Language:

BGUSAT - Orbit

View from above orbital plane
View from above orbital plane
View from above satellite
View from above satellite

Ground track
Ground track

The orbit data is extracted from the following two-line orbital elements,

1 41999U 17008BD  21054.98378702  .00005128  00000-0  18428-3 0  9996
2 41999  97.3378 126.2543 0009060 131.7591 228.4425 15.29049564223364
Epoch (UTC): 23 February 2021 23:36:39
Eccentricity: 0.0009060
inclination: 97.3378°
perigee height: 472 km
apogee height: 485 km
right ascension of ascending node: 126.2543°
argument of perigee: 131.7591°
revolutions per day: 15.29049564
mean anomaly at epoch: 228.4425°
orbit number at epoch: 22336

The dashed part of the orbit path shows where the satellite is in the earth's shadow,  

DLR